Location: Newark
(27.5900°N, 83.4900°E)
Time: 04:03:26
(UTC+00:00)

Hubble Space Telescope - Visible Passes

Search period start: 22 January 2021 00:00
Search period end: 01 February 2021 00:00
Orbit: 536 x 539 km, 28.5° (Epoch: 21 January)

Date Brightness Start Highest point End Pass type
(mag) Time Alt. Az. Time Alt. Az. Time Alt. Az.
22 Jan 0.7 12:56:00 10° W 13:00:07 77° N 13:02:32 24° E visible
22 Jan 3.8 14:37:13 10° W 14:37:51 14° W 14:37:51 14° W visible
23 Jan 0.7 12:45:11 10° W 12:49:20 78° N 12:52:27 17° E visible
23 Jan 3.3 14:26:25 10° W 14:27:47 20° W 14:27:47 20° W visible
24 Jan 0.7 12:34:23 10° W 12:38:31 82° N 12:42:27 11° E visible
24 Jan 2.7 14:15:39 10° W 14:17:47 28° W 14:17:47 28° W visible
25 Jan 0.8 12:23:35 10° W 12:27:44 87° N 12:31:52 10° E visible
25 Jan 2.2 14:04:54 10° W 14:07:51 35° SW 14:07:51 35° SW visible
26 Jan 2.0 13:54:11 10° W 13:57:57 34° SSW 13:58:01 34° SSW visible
27 Jan 2.4 13:43:32 10° W 13:47:03 27° SSW 13:48:18 23° S visible
28 Jan 2.9 13:32:58 10° WSW 13:36:10 22° SSW 13:38:42 13° SSE visible
29 Jan 3.3 13:22:32 10° WSW 13:25:15 17° SSW 13:27:58 10° SSE visible
30 Jan 3.5 13:12:22 10° WSW 13:14:21 13° SSW 13:16:19 10° S visible
